{"data":{"norad_id":59470,"epoch":"2026-09-21T13:57:45.569088Z","epoch_age_seconds":71670,"freshness":"FRESH","line1":"1 59470U 24068R   26264.58177742 -.00000212  00000+0  18141-5 0  9991","line2":"2 59470  43.0023   4.6119 0001023 271.9157  88.1578 15.27576973138526","mean_motion":15.27576973,"eccentricity":0.0001023,"inclination_deg":43.0023,"raan_deg":4.6119,"arg_perigee_deg":271.9157,"mean_anomaly_deg":88.1578,"bstar":1.8141e-6,"rev_number":13852,"period_min":94.26693550977,"perigee_km":482.35625971671,"apogee_km":483.76006024644,"semimajor_km":6861.1951599816,"source":"CELESTRAK","updated_at":"2026-09-22T09:00:48.949908Z"}}